"Sample Date","Sample Time","Sample Value","Units","Flow Rate","Laser Status","Micron Size 0","Counts/Channel 0","Micron Size 1","Counts/Channel 1","Micron Size 2","Counts/Channel 2","Micron Size 3","Counts/Channel 3","Micron Size 4","Counts/Channel 4","Micron Size 5","Counts/Channel 5","Micron Size 6","Counts/Channel 6","Micron Size 7","Counts/Channel 7","Micron Size 8","Counts/Channel 8","Micron Size 9","Counts/Channel 9","Micron Size 10","Counts/Channel 10","Micron Size 11","Counts/Channel 11","Micron Size 12","Counts/Channel 12","Micron Size 13","Counts/Channel 13","Micron Size 14","Counts/Channel 14","Micron Size 15","Counts/Channel 15","Micron Size 16","Counts/Channel 16","Micron Size 17","Counts/Channel 17","Micron Size 18","Counts/Channel 18","Micron Size 19","Counts/Channel 19","Micron Size 20","Counts/Channel 20","Micron Size 21","Counts/Channel 21","Micron Size 22","Counts/Channel 22","Micron Size 23","Counts/Channel 23","Micron Size 24","Counts/Channel 24","Micron Size 25","Counts/Channel 25","Micron Size 26","Counts/Channel 26","Micron Size 27","Counts/Channel 27","Micron Size 28","Counts/Channel 28","Micron Size 29","Counts/Channel 29","Micron Size 30","Counts/Channel 30","Micron Size 31","Counts/Channel 31"
"03/02/08","00:00:04",20620.000,"cc",28248.945,1,0.100,18221.000,0.200,828.000,0.300,540.000,0.500,751.000,1.000,280.000,5.000,0
"03/02/08","00:00:10",20723.000,"cc",28381.598,1,0.100,18322.000,0.200,851.000,0.300,554.000,0.500,658.000,1.000,338.000,5.000,0
"03/02/08","00:00:16",20167.000,"cc",28330.281,1,0.100,17718.000,0.200,851.000,0.300,555.000,0.500,708.000,1.000,335.000,5.000,0
"03/02/08","00:00:22",20507.000,"cc",28313.594,1,0.100,18152.000,0.200,798.000,0.300,524.000,0.500,728.000,1.000,305.000,5.000,0
"03/02/08","00:00:28",20331.000,"cc",28283.031,1,0.100,18033.000,0.200,786.000,0.300,519.000,0.500,713.000,1.000,280.000,5.000,0
"03/02/08","00:00:34",20364.000,"cc",28302.861,1,0.100,18023.000,0.200,800.000,0.300,533.000,0.500,707.000,1.000,301.000,5.000,0
"03/02/08","00:00:40",20605.000,"cc",28305.420,1,0.100,18255.000,0.200,847.000,0.300,532.000,0.500,640.000,1.000,331.000,5.000,0
"03/02/08","00:00:46",20411.000,"cc",28308.715,1,0.100,18106.000,0.200,791.000,0.300,579.000,0.500,627.000,1.000,308.000,5.000,0
"03/02/08","00:00:52",20665.000,"cc",28218.748,1,0.100,18223.000,0.200,820.000,0.300,532.000,0.500,747.000,1.000,343.000,5.000,0
"03/02/08","00:00:58",20587.000,"cc",28277.674,1,0.100,18244.000,0.200,815.000,0.300,553.000,0.500,661.000,1.000,314.000,5.000,0
"03/02/08","00:01:04",20638.000,"cc",28406.266,1,0.100,18379.000,0.200,774.000,0.300,492.000,0.500,694.000,1.000,299.000,5.000,0
"03/02/08","00:01:10",20431.000,"cc",28322.152,1,0.100,18062.000,0.200,787.000,0.300,539.000,0.500,733.000,1.000,310.000,5.000,0
"03/02/08","00:01:16",20595.000,"cc",28354.451,1,0.100,18170.000,0.200,835.000,0.300,556.000,0.500,700.000,1.000,334.000,5.000,0
"03/02/08","00:01:22",20574.000,"cc",28341.680,1,0.100,18280.000,0.200,793.000,0.300,545.000,0.500,660.000,1.000,296.000,5.000,0
"03/02/08","00:01:28",20590.000,"cc",28299.371,1,0.100,18187.000,0.200,851.000,0.300,543.000,0.500,681.000,1.000,328.000,5.000,0
"03/02/08","00:01:34",20376.000,"cc",28316.334,1,0.100,18017.000,0.200,797.000,0.300,555.000,0.500,683.000,1.000,324.000,5.000,0
"03/02/08","00:01:40",20673.000,"cc",28231.973,1,0.100,18319.000,0.200,786.000,0.300,566.000,0.500,681.000,1.000,321.000,5.000,0
"03/02/08","00:01:46",20414.000,"cc",28370.375,1,0.100,18124.000,0.200,765.000,0.300,569.000,0.500,661.000,1.000,295.000,5.000,0
"03/02/08","00:01:52",20290.000,"cc",28337.184,1,0.100,17949.000,0.200,810.000,0.300,539.000,0.500,692.000,1.000,300.000,5.000,0
"03/02/08","00:01:58",20378.000,"cc",28300.844,1,0.100,18024.000,0.200,788.000,0.300,525.000,0.500,686.000,1.000,355.000,5.000,0
"03/02/08","00:02:04",20580.000,"cc",28342.969,1,0.100,18186.000,0.200,819.000,0.300,556.000,0.500,701.000,1.000,318.000,5.000,0
"03/02/08","00:02:10",20349.000,"cc",28370.914,1,0.100,18080.000,0.200,752.000,0.300,536.000,0.500,645.000,1.000,336.000,5.000,0
"03/02/08","00:02:16",20603.000,"cc",28244.246,1,0.100,18259.000,0.200,767.000,0.300,555.000,0.500,698.000,1.000,324.000,5.000,0
"03/02/08","00:02:22",20459.000,"cc",28303.148,1,0.100,18156.000,0.200,799.000,0.300,539.000,0.500,665.000,1.000,300.000,5.000,0
"03/02/08","00:02:28",20471.000,"cc",28298.494,1,0.100,18172.000,0.200,820.000,0.300,499.000,0.500,677.000,1.000,303.000,5.000,0
"03/02/08","00:02:34",20285.000,"cc",28317.887,1,0.100,17950.000,0.200,810.000,0.300,518.000,0.500,670.000,1.000,337.000,5.000,0
"03/02/08","00:02:40",20465.000,"cc",28282.246,1,0.100,18073.000,0.200,862.000,0.300,552.000,0.500,663.000,1.000,315.000,5.000,0
"03/02/08","00:02:46",20339.000,"cc",28329.643,1,0.100,17963.000,0.200,809.000,0.300,560.000,0.500,684.000,1.000,323.000,5.000,0
"03/02/08","00:02:52",20371.000,"cc",28301.609,1,0.100,18038.000,0.200,790.000,0.300,551.000,0.500,696.000,1.000,296.000,5.000,0
"03/02/08","00:02:58",20304.000,"cc",28329.926,1,0.100,18029.000,0.200,785.000,0.300,514.000,0.500,661.000,1.000,315.000,5.000,0
"03/02/08","00:03:04",20341.000,"cc",28339.551,1,0.100,18012.000,0.200,799.000,0.300,534.000,0.500,696.000,1.000,300.000,5.000,0
"03/02/08","00:03:10",20320.000,"cc",28265.648,1,0.100,18000.000,0.200,844.000,0.300,486.000,0.500,684.000,1.000,306.000,5.000,0
"03/02/08","00:03:16",20414.000,"cc",28354.273,1,0.100,18026.000,0.200,773.000,0.300,597.000,0.500,703.000,1.000,315.000,5.000,0
"03/02/08","00:03:22",20377.000,"cc",28326.287,1,0.100,17965.000,0.200,843.000,0.300,527.000,0.500,743.000,1.000,299.000,5.000,0
"03/02/08","00:03:28",20442.000,"cc",28327.059,1,0.100,18056.000,0.200,802.000,0.300,561.000,0.500,711.000,1.000,312.000,5.000,0
"03/02/08","00:03:34",20303.000,"cc",28284.625,1,0.100,17860.000,0.200,842.000,0.300,603.000,0.500,688.000,1.000,310.000,5.000,0
"03/02/08","00:03:40",20237.000,"cc",28365.768,1,0.100,17937.000,0.200,803.000,0.300,520.000,0.500,681.000,1.000,296.000,5.000,0
"03/02/08","00:03:46",20178.000,"cc",28364.506,1,0.100,17805.000,0.200,792.000,0.300,580.000,0.500,680.000,1.000,321.000,5.000,0
"03/02/08","00:03:52",20323.000,"cc",28298.018,1,0.100,17973.000,0.200,861.000,0.300,526.000,0.500,666.000,1.000,297.000,5.000,0
"03/02/08","00:03:58",20201.000,"cc",28315.272,1,0.100,17842.000,0.200,844.000,0.300,513.000,0.500,704.000,1.000,298.000,5.000,0
"03/02/08","00:04:04",20548.000,"cc",28314.645,1,0.100,18115.000,0.200,839.000,0.300,562.000,0.500,714.000,1.000,318.000,5.000,0
"03/02/08","00:04:10",20279.000,"cc",28358.471,1,0.100,17950.000,0.200,800.000,0.300,550.000,0.500,645.000,1.000,334.000,5.000,0
"03/02/08","00:04:16",20006.000,"cc",28210.057,1,0.100,17716.000,0.200,785.000,0.300,527.000,0.500,674.000,1.000,304.000,5.000,0
"03/02/08","00:04:22",20194.000,"cc",28309.311,1,0.100,17811.000,0.200,826.000,0.300,570.000,0.500,666.000,1.000,321.000,5.000,0
"03/02/08","00:04:28",20464.000,"cc",28387.027,1,0.100,18075.000,0.200,800.000,0.300,559.000,0.500,708.000,1.000,322.000,5.000,0
"03/02/08","00:04:34",20400.000,"cc",28347.254,1,0.100,18047.000,0.200,818.000,0.300,504.000,0.500,702.000,1.000,329.000,5.000,0
"03/02/08","00:04:40",20129.000,"cc",28280.066,1,0.100,17778.000,0.200,794.000,0.300,556.000,0.500,691.000,1.000,310.000,5.000,0
"03/02/08","00:04:46",20813.000,"cc",28318.777,1,0.100,18089.000,0.200,991.000,0.300,663.000,0.500,735.000,1.000,335.000,5.000,0
"03/02/08","00:04:52",20315.000,"cc",28329.459,1,0.100,17950.000,0.200,817.000,0.300,608.000,0.500,633.000,1.000,307.000,5.000,0
"03/02/08","00:04:58",20228.000,"cc",28314.432,1,0.100,17939.000,0.200,770.000,0.300,527.000,0.500,699.000,1.000,293.000,5.000,0
"03/02/08","00:05:04",20365.000,"cc",28334.897,1,0.100,18017.000,0.200,823.000,0.300,527.000,0.500,685.000,1.000,313.000,5.000,0
"03/02/08","00:05:10",20416.000,"cc",28274.398,1,0.100,18094.000,0.200,842.000,0.300,498.000,0.500,685.000,1.000,297.000,5.000,0
"03/02/08","00:05:16",20277.000,"cc",28324.711,1,0.100,17936.000,0.200,844.000,0.300,508.000,0.500,679.000,1.000,310.000,5.000,0
"03/02/08","00:05:22",20299.000,"cc",28319.662,1,0.100,18017.000,0.200,757.000,0.300,525.000,0.500,688.000,1.000,312.000,5.000,0
"03/02/08","00:05:28",20306.000,"cc",28293.223,1,0.100,17961.000,0.200,805.000,0.300,530.000,0.500,672.000,1.000,338.000,5.000,0
"03/02/08","00:05:34",20610.000,"cc",28303.553,1,0.100,18208.000,0.200,824.000,0.300,555.000,0.500,686.000,1.000,337.000,5.000,0
"03/02/08","00:05:40",20723.000,"cc",28364.590,1,0.100,18376.000,0.200,836.000,0.300,539.000,0.500,686.000,1.000,286.000,5.000,0
"03/02/08","00:05:46",20555.000,"cc",28272.836,1,0.100,18198.000,0.200,847.000,0.300,523.000,0.500,695.000,1.000,292.000,5.000,0
"03/02/08","00:05:52",20281.000,"cc",28285.740,1,0.100,17969.000,0.200,781.000,0.300,541.000,0.500,680.000,1.000,310.000,5.000,0
"03/02/08","00:05:58",20368.000,"cc",28381.777,1,0.100,18055.000,0.200,786.000,0.300,504.000,0.500,697.000,1.000,326.000,5.000,0
"03/02/08","00:06:04",20322.000,"cc",28364.793,1,0.100,17951.000,0.200,785.000,0.300,574.000,0.500,686.000,1.000,326.000,5.000,0
"03/02/08","00:06:10",20279.000,"cc",28256.107,1,0.100,17963.000,0.200,828.000,0.300,537.000,0.500,658.000,1.000,293.000,5.000,0
"03/02/08","00:06:16",20410.000,"cc",28331.279,1,0.100,18035.000,0.200,871.000,0.300,521.000,0.500,701.000,1.000,282.000,5.000,0
"03/02/08","00:06:22",20348.000,"cc",28307.506,1,0.100,17980.000,0.200,835.000,0.300,535.000,0.500,698.000,1.000,300.000,5.000,0
"03/02/08","00:06:28",20278.000,"cc",28331.449,1,0.100,17957.000,0.200,793.000,0.300,539.000,0.500,684.000,1.000,305.000,5.000,0
"03/02/08","00:06:34",20055.000,"cc",28263.482,1,0.100,17635.000,0.200,870.000,0.300,535.000,0.500,708.000,1.000,307.000,5.000,0
"03/02/08","00:06:40",20132.000,"cc",28327.416,1,0.100,17770.000,0.200,796.000,0.300,579.000,0.500,689.000,1.000,298.000,5.000,0
"03/02/08","00:06:46",20126.000,"cc",28333.834,1,0.100,17787.000,0.200,783.000,0.300,559.000,0.500,671.000,1.000,326.000,5.000,0
"03/02/08","00:06:52",20207.000,"cc",28283.982,1,0.100,17872.000,0.200,795.000,0.300,569.000,0.500,683.000,1.000,288.000,5.000,0
"03/02/08","00:06:58",20099.000,"cc",28295.834,1,0.100,17793.000,0.200,812.000,0.300,527.000,0.500,655.000,1.000,311.000,5.000,1.000
"03/02/08","00:07:04",20069.000,"cc",28227.647,1,0.100,17760.000,0.200,784.000,0.300,523.000,0.500,710.000,1.000,292.000,5.000,0
"03/02/08","00:07:10",19944.000,"cc",28372.557,1,0.100,17609.000,0.200,777.000,0.300,539.000,0.500,695.000,1.000,324.000,5.000,0
"03/02/08","00:07:16",20096.000,"cc",28347.799,1,0.100,17731.000,0.200,836.000,0.300,529.000,0.500,663.000,1.000,337.000,5.000,0
"03/02/08","00:07:22",19940.000,"cc",28270.850,1,0.100,17687.000,0.200,753.000,0.300,510.000,0.500,655.000,1.000,335.000,5.000,0
"03/02/08","00:07:28",20229.000,"cc",28289.916,1,0.100,17864.000,0.200,797.000,0.300,579.000,0.500,667.000,1.000,322.000,5.000,0
"03/02/08","00:07:34",19981.000,"cc",28328.891,1,0.100,17718.000,0.200,793.000,0.300,495.000,0.500,655.000,1.000,320.000,5.000,0
"03/02/08","00:07:40",19823.000,"cc",28363.777,1,0.100,17522.000,0.200,785.000,0.300,544.000,0.500,677.000,1.000,295.000,5.000,0
"03/02/08","00:07:46",19684.000,"cc",28336.895,1,0.100,17439.000,0.200,792.000,0.300,512.000,0.500,639.000,1.000,302.000,5.000,0
"03/02/08","00:07:52",20103.000,"cc",28289.600,1,0.100,17675.000,0.200,862.000,0.300,541.000,0.500,726.000,1.000,299.000,5.000,0
"03/02/08","00:07:58",19924.000,"cc",28301.854,1,0.100,17615.000,0.200,780.000,0.300,572.000,0.500,670.000,1.000,286.000,5.000,1.000
"03/02/08","00:08:04",19779.000,"cc",28365.086,1,0.100,17443.000,0.200,795.000,0.300,562.000,0.500,654.000,1.000,325.000,5.000,0
"03/02/08","00:08:10",20144.000,"cc",28232.738,1,0.100,17832.000,0.200,819.000,0.300,528.000,0.500,664.000,1.000,301.000,5.000,0
"03/02/08","00:08:16",20134.000,"cc",28322.457,1,0.100,17728.000,0.200,882.000,0.300,555.000,0.500,668.000,1.000,301.000,5.000,0
"03/02/08","00:08:22",19922.000,"cc",28313.022,1,0.100,17637.000,0.200,828.000,0.300,522.000,0.500,627.000,1.000,308.000,5.000,0
"03/02/08","00:08:28",19808.000,"cc",28359.432,1,0.100,17599.000,0.200,772.000,0.300,489.000,0.500,682.000,1.000,266.000,5.000,0
"03/02/08","00:08:34",19713.000,"cc",28323.115,1,0.100,17498.000,0.200,748.000,0.300,504.000,0.500,667.000,1.000,296.000,5.000,0
"03/02/08","00:08:40",19603.000,"cc",28314.666,1,0.100,17384.000,0.200,781.000,0.300,524.000,0.500,609.000,1.000,305.000,5.000,0
"03/02/08","00:08:46",20072.000,"cc",28305.479,1,0.100,17698.000,0.200,831.000,0.300,518.000,0.500,710.000,1.000,315.000,5.000,0
"03/02/08","00:08:52",20003.000,"cc",28324.010,1,0.100,17595.000,0.200,854.000,0.300,552.000,0.500,673.000,1.000,329.000,5.000,0
"03/02/08","00:08:58",19935.000,"cc",28300.680,1,0.100,17631.000,0.200,847.000,0.300,515.000,0.500,646.000,1.000,296.000,5.000,0
"03/02/08","00:09:04",19988.000,"cc",28304.334,1,0.100,17680.000,0.200,805.000,0.300,558.000,0.500,680.000,1.000,265.000,5.000,0
"03/02/08","00:09:10",19956.000,"cc",28285.875,1,0.100,17700.000,0.200,800.000,0.300,507.000,0.500,630.000,1.000,319.000,5.000,0
"03/02/08","00:09:16",19877.000,"cc",28273.799,1,0.100,17609.000,0.200,825.000,0.300,512.000,0.500,616.000,1.000,315.000,5.000,0
"03/02/08","00:09:22",20024.000,"cc",28364.432,1,0.100,17725.000,0.200,788.000,0.300,524.000,0.500,686.000,1.000,301.000,5.000,0
"03/02/08","00:09:28",19809.000,"cc",28359.047,1,0.100,17547.000,0.200,771.000,0.300,528.000,0.500,657.000,1.000,306.000,5.000,0
"03/02/08","00:09:34",19885.000,"cc",28350.279,1,0.100,17567.000,0.200,817.000,0.300,543.000,0.500,654.000,1.000,304.000,5.000,0
"03/02/08","00:09:40",19582.000,"cc",28271.811,1,0.100,17324.000,0.200,800.000,0.300,480.000,0.500,679.000,1.000,299.000,5.000,0
"03/02/08","00:09:46",20075.000,"cc",28299.906,1,0.100,17779.000,0.200,809.000,0.300,529.000,0.500,665.000,1.000,293.000,5.000,0
"03/02/08","00:09:52",19903.000,"cc",28372.910,1,0.100,17604.000,0.200,764.000,0.300,565.000,0.500,667.000,1.000,303.000,5.000,0
"03/02/08","00:09:58",19897.000,"cc",28261.914,1,0.100,17576.000,0.200,788.000,0.300,537.000,0.500,675.000,1.000,321.000,5.000,0
"03/02/08","00:10:04",19807.000,"cc",28311.240,1,0.100,17591.000,0.200,766.000,0.300,516.000,0.500,660.000,1.000,274.000,5.000,0
"03/02/08","00:10:10",20014.000,"cc",28298.438,1,0.100,17760.000,0.200,825.000,0.300,505.000,0.500,653.000,1.000,271.000,5.000,0
"03/02/08","00:10:16",19975.000,"cc",28347.895,1,0.100,17713.000,0.200,807.000,0.300,506.000,0.500,659.000,1.000,290.000,5.000,0
"03/02/08","00:10:22",20278.000,"cc",28271.668,1,0.100,17889.000,0.200,839.000,0.300,527.000,0.500,721.000,1.000,302.000,5.000,0
"03/02/08","00:10:28",20108.000,"cc",28352.938,1,0.100,17722.000,0.200,803.000,0.300,563.000,0.500,686.000,1.000,334.000,5.000,0
"03/02/08","00:10:34",20071.000,"cc",28329.760,1,0.100,17728.000,0.200,835.000,0.300,552.000,0.500,658.000,1.000,298.000,5.000,0
"03/02/08","00:10:40",20000.000,"cc",28343.555,1,0.100,17683.000,0.200,812.000,0.300,560.000,0.500,665.000,1.000,280.000,5.000,0
"03/02/08","00:10:46",20086.000,"cc",28306.406,1,0.100,17874.000,0.200,785.000,0.300,483.000,0.500,652.000,1.000,292.000,5.000,0
"03/02/08","00:10:52",20268.000,"cc",28301.338,1,0.100,17939.000,0.200,819.000,0.300,562.000,0.500,669.000,1.000,279.000,5.000,0
"03/02/08","00:10:58",20328.000,"cc",28294.600,1,0.100,17981.000,0.200,841.000,0.300,555.000,0.500,663.000,1.000,288.000,5.000,0
"03/02/08","00:11:04",19945.000,"cc",28347.691,1,0.100,17651.000,0.200,833.000,0.300,533.000,0.500,655.000,1.000,273.000,5.000,0
"03/02/08","00:11:10",20096.000,"cc",28256.598,1,0.100,17823.000,0.200,813.000,0.300,501.000,0.500,668.000,1.000,291.000,5.000,0
"03/02/08","00:11:16",20289.000,"cc",28371.381,1,0.100,17944.000,0.200,854.000,0.300,544.000,0.500,647.000,1.000,300.000,5.000,0
"03/02/08","00:11:22",20121.000,"cc",28313.311,1,0.100,17940.000,0.200,766.000,0.300,495.000,0.500,648.000,1.000,272.000,5.000,0
"03/02/08","00:11:28",20476.000,"cc",28376.186,1,0.100,18135.000,0.200,842.000,0.300,538.000,0.500,673.000,1.000,288.000,5.000,0
"03/02/08","00:11:34",20402.000,"cc",28284.320,1,0.100,18189.000,0.200,765.000,0.300,519.000,0.500,657.000,1.000,272.000,5.000,0
"03/02/08","00:11:40",20199.000,"cc",28256.231,1,0.100,17872.000,0.200,792.000,0.300,560.000,0.500,663.000,1.000,312.000,5.000,0
"03/02/08","00:11:46",20474.000,"cc",28326.328,1,0.100,18109.000,0.200,800.000,0.300,572.000,0.500,685.000,1.000,308.000,5.000,0
"03/02/08","00:11:52",20233.000,"cc",28374.529,1,0.100,17861.000,0.200,817.000,0.300,568.000,0.500,675.000,1.000,312.000,5.000,0
"03/02/08","00:11:58",20336.000,"cc",28314.510,1,0.100,17970.000,0.200,835.000,0.300,569.000,0.500,643.000,1.000,319.000,5.000,0
"03/02/08","00:12:04",20325.000,"cc",28329.482,1,0.100,18036.000,0.200,795.000,0.300,496.000,0.500,697.000,1.000,301.000,5.000,0
"03/02/08","00:12:10",20196.000,"cc",28293.553,1,0.100,17917.000,0.200,832.000,0.300,544.000,0.500,609.000,1.000,294.000,5.000,0
"03/02/08","00:12:16",20154.000,"cc",28316.065,1,0.100,17900.000,0.200,743.000,0.300,543.000,0.500,665.000,1.000,303.000,5.000,0
"03/02/08","00:12:22",20320.000,"cc",28323.973,1,0.100,18010.000,0.200,821.000,0.300,522.000,0.500,663.000,1.000,304.000,5.000,0
"03/02/08","00:12:28",20179.000,"cc",28363.816,1,0.100,17879.000,0.200,794.000,0.300,532.000,0.500,688.000,1.000,286.000,5.000,0
"03/02/08","00:12:34",20001.000,"cc",28347.715,1,0.100,17661.000,0.200,814.000,0.300,555.000,0.500,678.000,1.000,293.000,5.000,0
"03/02/08","00:12:40",19905.000,"cc",28275.865,1,0.100,17601.000,0.200,765.000,0.300,550.000,0.500,680.000,1.000,309.000,5.000,0
"03/02/08","00:12:46",20258.000,"cc",28317.438,1,0.100,18050.000,0.200,726.000,0.300,519.000,0.500,686.000,1.000,277.000,5.000,0
"03/02/08","00:12:52",19748.000,"cc",28345.389,1,0.100,17467.000,0.200,774.000,0.300,483.000,0.500,689.000,1.000,335.000,5.000,0
"03/02/08","00:12:58",20057.000,"cc",28363.731,1,0.100,17868.000,0.200,774.000,0.300,510.000,0.500,617.000,1.000,288.000,5.000,0
"03/02/08","00:13:04",20290.000,"cc",28266.397,1,0.100,18040.000,0.200,780.000,0.300,517.000,0.500,662.000,1.000,291.000,5.000,0
"03/02/08","00:13:10",19820.000,"cc",28223.297,1,0.100,17553.000,0.200,824.000,0.300,496.000,0.500,662.000,1.000,285.000,5.000,0
"03/02/08","00:13:16",19658.000,"cc",28400.916,1,0.100,17384.000,0.200,792.000,0.300,527.000,0.500,628.000,1.000,327.000,5.000,0
"03/02/08","00:13:22",20056.000,"cc",28323.857,1,0.100,17855.000,0.200,758.000,0.300,475.000,0.500,636.000,1.000,332.000,5.000,0
"03/02/08","00:13:28",20044.000,"cc",28309.789,1,0.100,17706.000,0.200,798.000,0.300,526.000,0.500,729.000,1.000,285.000,5.000,0
"03/02/08","00:13:34",20038.000,"cc",28277.377,1,0.100,17767.000,0.200,754.000,0.300,547.000,0.500,661.000,1.000,309.000,5.000,0
"03/02/08","00:13:40",19837.000,"cc",28329.316,1,0.100,17633.000,0.200,775.000,0.300,520.000,0.500,602.000,1.000,307.000,5.000,0
"03/02/08","00:13:46",19979.000,"cc",28306.191,1,0.100,17782.000,0.200,787.000,0.300,529.000,0.500,612.000,1.000,269.000,5.000,0
"03/02/08","00:13:52",20012.000,"cc",28351.123,1,0.100,17742.000,0.200,801.000,0.300,511.000,0.500,659.000,1.000,299.000,5.000,0
"03/02/08","00:13:58",19691.000,"cc",28321.883,1,0.100,17389.000,0.200,803.000,0.300,535.000,0.500,676.000,1.000,288.000,5.000,0
"03/02/08","00:14:04",19949.000,"cc",28256.285,1,0.100,17695.000,0.200,776.000,0.300,524.000,0.500,644.000,1.000,310.000,5.000,0
"03/02/08","00:14:10",19744.000,"cc",28282.143,1,0.100,17478.000,0.200,806.000,0.300,496.000,0.500,653.000,1.000,311.000,5.000,0
"03/02/08","00:14:16",20071.000,"cc",28265.572,1,0.100,17786.000,0.200,795.000,0.300,533.000,0.500,650.000,1.000,307.000,5.000,0
"03/02/08","00:14:22",20035.000,"cc",28331.826,1,0.100,17755.000,0.200,820.000,0.300,517.000,0.500,662.000,1.000,281.000,5.000,0
"03/02/08","00:14:28",19959.000,"cc",28340.131,1,0.100,17744.000,0.200,785.000,0.300,536.000,0.500,616.000,1.000,278.000,5.000,0
"03/02/08","00:14:34",19963.000,"cc",28328.805,1,0.100,17790.000,0.200,726.000,0.300,522.000,0.500,613.000,1.000,312.000,5.000,0
"03/02/08","00:14:40",19854.000,"cc",28375.467,1,0.100,17617.000,0.200,772.000,0.300,515.000,0.500,638.000,1.000,312.000,5.000,0
"03/02/08","00:14:46",20040.000,"cc",28288.639,1,0.100,17702.000,0.200,807.000,0.300,544.000,0.500,706.000,1.000,281.000,5.000,0
"03/02/08","00:14:52",20125.000,"cc",28285.328,1,0.100,17836.000,0.200,808.000,0.300,531.000,0.500,674.000,1.000,276.000,5.000,0
"03/02/08","00:14:58",19929.000,"cc",28290.248,1,0.100,17692.000,0.200,808.000,0.300,509.000,0.500,626.000,1.000,294.000,5.000,0
"03/02/08","00:15:04",20156.000,"cc",28334.770,1,0.100,17915.000,0.200,784.000,0.300,509.000,0.500,662.000,1.000,286.000,5.000,0
"03/02/08","00:15:10",20212.000,"cc",28324.629,1,0.100,17933.000,0.200,778.000,0.300,544.000,0.500,640.000,1.000,317.000,5.000,0
"03/02/08","00:15:16",19866.000,"cc",28331.592,1,0.100,17612.000,0.200,790.000,0.300,505.000,0.500,657.000,1.000,302.000,5.000,0
"03/02/08","00:15:22",19988.000,"cc",28311.543,1,0.100,17727.000,0.200,767.000,0.300,576.000,0.500,621.000,1.000,297.000,5.000,0
"03/02/08","00:15:28",19748.000,"cc",28306.621,1,0.100,17490.000,0.200,805.000,0.300,523.000,0.500,638.000,1.000,292.000,5.000,0
"03/02/08","00:15:34",19961.000,"cc",28307.252,1,0.100,17669.000,0.200,828.000,0.300,494.000,0.500,644.000,1.000,326.000,5.000,0
"03/02/08","00:15:40",19845.000,"cc",28321.949,1,0.100,17643.000,0.200,769.000,0.300,528.000,0.500,617.000,1.000,288.000,5.000,0
"03/02/08","00:15:46",20212.000,"cc",28263.516,1,0.100,17976.000,0.200,782.000,0.300,523.000,0.500,644.000,1.000,287.000,5.000,0
"03/02/08","00:15:52",19721.000,"cc",28302.734,1,0.100,17542.000,0.200,759.000,0.300,506.000,0.500,626.000,1.000,288.000,5.000,0
"03/02/08","00:15:58",19928.000,"cc",28373.619,1,0.100,17758.000,0.200,751.000,0.300,496.000,0.500,646.000,1.000,277.000,5.000,0
"03/02/08","00:16:04",19977.000,"cc",28358.357,1,0.100,17724.000,0.200,826.000,0.300,511.000,0.500,628.000,1.000,288.000,5.000,0
"03/02/08","00:16:10",20064.000,"cc",28320.047,1,0.100,17714.000,0.200,821.000,0.300,523.000,0.500,690.000,1.000,316.000,5.000,0
"03/02/08","00:16:16",19948.000,"cc",28336.256,1,0.100,17604.000,0.200,784.000,0.300,588.000,0.500,666.000,1.000,306.000,5.000,0
"03/02/08","00:16:22",20173.000,"cc",28329.395,1,0.100,17927.000,0.200,789.000,0.300,551.000,0.500,633.000,1.000,273.000,5.000,0
"03/02/08","00:16:28",19814.000,"cc",28282.924,1,0.100,17596.000,0.200,795.000,0.300,519.000,0.500,620.000,1.000,284.000,5.000,0
"03/02/08","00:16:34",19806.000,"cc",28322.623,1,0.100,17619.000,0.200,728.000,0.300,513.000,0.500,623.000,1.000,323.000,5.000,0
"03/02/08","00:16:40",20039.000,"cc",28269.365,1,0.100,17697.000,0.200,819.000,0.300,538.000,0.500,690.000,1.000,295.000,5.000,0
"03/02/08","00:16:46",20217.000,"cc",28332.732,1,0.100,17919.000,0.200,785.000,0.300,545.000,0.500,668.000,1.000,300.000,5.000,0
"03/02/08","00:16:52",19746.000,"cc",28334.135,1,0.100,17583.000,0.200,737.000,0.300,509.000,0.500,622.000,1.000,295.000,5.000,0
"03/02/08","00:16:58",20014.000,"cc",28325.606,1,0.100,17778.000,0.200,786.000,0.300,493.000,0.500,687.000,1.000,270.000,5.000,0
"03/02/08","00:17:04",20269.000,"cc",28308.121,1,0.100,17987.000,0.200,836.000,0.300,505.000,0.500,638.000,1.000,303.000,5.000,0
"03/02/08","00:17:10",20024.000,"cc",28347.305,1,0.100,17717.000,0.200,844.000,0.300,512.000,0.500,663.000,1.000,288.000,5.000,0
"03/02/08","00:17:16",19939.000,"cc",28275.961,1,0.100,17695.000,0.200,833.000,0.300,480.000,0.500,627.000,1.000,304.000,5.000,0
"03/02/08","00:17:22",19890.000,"cc",28371.363,1,0.100,17582.000,0.200,809.000,0.300,535.000,0.500,656.000,1.000,308.000,5.000,0